Track OPS 1294 (DMSP 5D-2 F7) now! 10-day predictions OPS 1294 (DMSP 5D-2 F7) is classified as:
1 14506U 83113A 21023.58105997 .00000031 00000-0 28900-4 0 9991 2 14506 98.3092 231.6491 0010259 296.3379 123.6484 14.28129977934094